Regional Weather Roundup
Issued by NWS

Home | Current Version | Previous Version | Graphics & Text | Print | Product List | Glossary On
Versions: 1 2 3 4 5 6 7 8 9 10 11 12 13 14 15 16 17 18 19 20 21 22 23 24 25 26 27 28 29 30 31 32 33 34 35 36 37 38 39 40 41 42 43 44 45 46 47 48 49 50
855
ASUS44 KMEG 251810
RWRTN
TENNESSEE HOURLY STATE WEATHER ROUNDUP
NATIONAL WEATHER SERVICE MEMPHIS TN
100 PM CDT THU AUG 25 2016

TNZ002-004-019-021-049-052-054-088>092-251900-
WEST TENNESSEE

CITY           SKY/WX    TMP DP  RH WIND       PRES   REMARKS
MEMPHIS INTL   PTSUNNY   95  76  53 SW8       30.11F HX 108
NWS MEMPHIS      N/A     82 N/A N/A MISG        N/A
JACKSON        LGT RAIN  87  78  74 S9        30.12F HX 100
DYERSBURG      SUNNY    N/A N/A N/A MISG        N/A
UNION CITY     SUNNY     91  77  62 W6        30.10F HX 105
PARIS          SUNNY     88  75  66 CALM      30.13F HX  97
LEXINGTON      SUNNY     91  75  59 CALM      30.12F HX 102
$$

TNZ008-025-027-028-033-062-065-066-251900-
NORTH MIDDLE TENNESSEE

CITY           SKY/WX    TMP DP  RH WIND       PRES   REMARKS
NASHVILLE      PTSUNNY   93  72  50 W5        30.13F HX 101
CLARKSVILLE    MOSUNNY   90  74  59 SW13      30.12F HX  99
SMYRNA         PTSUNNY   90  75  62 MISG      30.14F HX 100
COOKEVILLE     MOSUNNY   91  77  62 SW6       30.16F HX 105
CROSSVILLE     MOSUNNY   86  69  56 SW8       30.22F HX  90
$$

TNZ061-075-076-078-094-096-097-251900-
SOUTH MIDDLE TENNESSEE

CITY           SKY/WX    TMP DP  RH WIND       PRES   REMARKS
FAYETTEVILLE   MOSUNNY   90  75  62 W5        30.16F HX 100
TULLAHOMA      MOSUNNY   90  72  55 W8        30.18F HX  96
WINCHESTER     SUNNY     90  73  58 VRB3      30.16F HX  98
MCMINNVILLE    SUNNY     91  75  59 S6        30.17F HX 102
COLUMBIA       MOSUNNY   91  79  66 SW5       30.13F HX 107
SHELBYVILLE    SUNNY     91  77  62 SW5       30.16F HX 105
$$

TNZ017-018-042-046-047-251900-
NORTHEAST TENNESSEE

CITY           SKY/WX    TMP DP  RH WIND       PRES   REMARKS
TRI CITIES     MOSUNNY   86  71  60 VRB3      30.20F HX  91
ELIZABETHTON   MOSUNNY   86  72  62 VRB5      30.20F HX  92
$$

TNZ012-013-036-069-073-074-251900-
CENTRAL EAST TENNESSEE

CITY           SKY/WX    TMP DP  RH WIND       PRES   REMARKS
KNOXVILLE      MOSUNNY   89  70  53 SW5       30.16F HX  94
OAK RIDGE      PTSUNNY   88  71  57 VRB5      30.18F HX  94
MORRISTOWN     PTSUNNY   88  72  58 VRB3      30.19F HX  94
$$

TNZ083-085-099-251900-
SOUTHEAST TENNESSEE

CITY           SKY/WX    TMP DP  RH WIND       PRES   REMARKS
CHATTANOOGA    MOSUNNY   91  70  49 SE6       30.15F HX  96
$$

SKY/WX REPORTED AS FAIR MEANS FEW OR NO CLOUDS BELOW
12 THOUSAND FEET.





USA.gov is the U.S. government's official web portal to all federal, state and local government web resources and services.